EW7164 Weather Reports


Display with metric or nautical units.
time (UTC)temp
F
wind
direction
speed
MPH
gust
MPH
rain 1hr
in
rain 24hr
in
rain mn
in
humidity
%
barometer
mb
20260901065533 61 259 6.0 9.0 0.00 0.00 0.00 66 1019.0
20260901064536 62 327 2.0 4.0 0.00 0.00 0.00 67 1019.2
20260901064432 62 301 2.0 4.0 0.00 0.00 0.00 67 1019.2
20260901062433 59 360 3.0 4.0 0.00 0.00 0.00 70 1019.2
20260901060434 62 360 4.0 5.0 0.00 0.00 0.00 62 1019.0
20260901055532 62 7 3.0 4.0 0.00 0.00 0.00 63 1019.1
20260901055431 62 18 4.0 5.0 0.00 0.00 0.00 62 1019.0
20260901055332 62 28 4.0 4.0 0.00 0.00 0.00 63 1018.9
20260901054334 64 343 1.0 3.0 0.00 0.00 0.00 60 1019.0
20260901053433 64 253 8.0 11.0 0.00 0.00 0.00 58 1018.8
20260901050532 64 258 9.0 13.0 0.00 0.00 0.00 57 1019.0
20260901045535 64 258 11.0 15.0 0.00 0.00 0.00 56 1019.1
20260901044633 64 253 11.0 17.0 0.00 0.00 0.00 56 1019.1
20260901044535 64 254 11.0 16.0 0.00 0.00 0.00 56 1019.1
20260901043531 64 250 10.0 15.0 0.00 0.00 0.00 56 1019.2
20260901042533 64 255 8.0 11.0 0.00 0.00 0.00 55 1019.3
20260901040434 64 256 8.0 12.0 0.00 0.00 0.00 53 1019.1
20260901035442 64 254 8.0 14.0 0.00 0.00 0.00 52 1019.1
20260901034442 64 244 9.0 14.0 0.00 0.00 0.00 51 1019.3
20260901033441 64 247 12.0 19.0 0.00 0.00 0.00 51 1019.1
20260901032442 65 260 11.0 16.0 0.00 0.00 0.00 52 1019.2
20260901030544 65 254 7.0 11.0 0.00 0.03 0.00 50 1019.1
20260901025640 65 257 9.0 12.0 0.00 0.05 0.00 50 1019.1
20260901025542 65 246 8.0 13.0 0.00 0.05 0.00 50 1019.1
20260901024540 65 249 11.0 15.0 0.00 0.06 0.00 49 1019.1
20260901023541 65 257 12.0 17.0 0.00 0.06 0.00 49 1018.9
20260901022640 65 251 9.0 16.0 0.00 0.07 0.00 49 1018.9
20260901021642 65 248 10.0 15.0 0.00 0.08 0.00 48 1018.9
20260901020741 65 254 12.0 17.0 0.00 0.08 0.00 49 1019.1
20260901014740 64 254 9.0 14.0 0.00 0.09 0.00 48 1019.0
20260901014642 64 244 9.0 14.0 0.00 0.09 0.00 49 1019.1
20260901013642 64 256 12.0 17.0 0.00 0.09 0.00 51 1018.9
20260901012641 64 257 11.0 14.0 0.00 0.09 0.00 52 1019.1
20260901012543 64 252 13.0 19.0 0.00 0.09 0.00 52 1019.1
20260901010639 64 245 8.0 12.0 0.00 0.09 0.00 55 1019.2
20260901010539 64 243 7.0 12.0 0.00 0.09 0.00 55 1019.2
20260901005541 64 250 10.0 13.0 0.00 0.09 0.00 55 1019.1
20260901004542 64 240 9.0 13.0 0.00 0.12 0.00 55 1019.1
20260901003540 64 249 11.0 16.0 0.00 0.14 0.00 56 1019.1
20260901002541 64 263 13.0 19.0 0.00 0.17 0.00 55 1018.8
20260901000541 64 250 13.0 17.0 0.00 0.20 0.00 57 1018.8
20260831235542 64 258 13.0 20.0 0.00 0.21 0.00 58 1018.5
20260831234640 64 245 12.0 16.0 0.00 0.21 0.00 58 1018.5
20260831233641 64 250 10.0 22.0 0.00 0.21 0.00 57 1018.4
20260831232641 64 247 15.0 21.0 0.00 0.21 0.00 57 1018.3
20260831230641 65 245 10.0 16.0 0.00 0.22 0.00 58 1018.4
20260831225540 66 242 10.0 16.0 0.00 0.22 0.00 57 1018.4
20260831224541 67 246 12.0 17.0 0.00 0.22 0.00 57 1018.3
20260831223639 67 250 9.0 12.0 0.00 0.22 0.00 55 1018.5
20260831222641 68 242 8.0 11.0 0.00 0.22 0.00 55 1018.3
20260831221739 68 237 10.0 17.0 0.00 0.22 0.00 54 1018.3
20260831220743 69 230 9.0 13.0 0.00 0.22 0.00 54 1018.2
20260831220641 69 237 9.0 13.0 0.00 0.22 0.00 54 1018.3
20260831215740 69 230 8.0 11.0 0.00 0.22 0.00 56 1018.4
20260831213840 69 225 8.0 11.0 0.00 0.22 0.00 57 1018.2
20260831212842 70 222 8.0 11.0 0.00 0.22 0.00 56 1018.2
20260831211842 71 228 5.0 8.0 0.00 0.22 0.00 52 1018.2
20260831211739 71 231 3.0 6.0 0.00 0.22 0.00 52 1018.2
20260831210755 72 236 6.0 9.0 0.00 0.22 0.00 51 1018.1
20260831205841 72 199 4.0 5.0 0.00 0.22 0.00 46 1017.9
20260831204940 73 247 6.0 8.0 0.00 0.22 0.00 46 1018.1
20260831203942 73 221 4.0 7.0 0.00 0.22 0.00 45 1018.1
20260831202040 73 297 12.0 15.0 0.00 0.22 0.00 42 1018.0
20260831201940 74 304 11.0 17.0 0.00 0.22 0.00 42 1018.1
20260831200939 73 269 8.0 10.0 0.00 0.22 0.00 40 1018.2
20260831194942 73 270 3.0 4.0 0.00 0.22 0.00 43 1018.6
20260831192941 71 73 4.0 6.0 0.00 0.22 0.00 48 1018.7
20260831191942 71 105 4.0 5.0 0.00 0.22 0.00 50 1018.7
20260831190940 71 43 4.0 6.0 0.00 0.22 0.00 51 1018.9
20260831185942 70 76 6.0 8.0 0.00 0.22 0.00 52 1018.8
20260831184942 70 93 5.0 7.0 0.00 0.22 0.00 51 1019.0
20260831183941 71 58 7.0 9.0 0.00 0.22 0.00 50 1018.8
20260831182941 70 142 3.0 6.0 0.00 0.22 0.00 52 1019.2
20260831182041 71 81 5.0 7.0 0.00 0.22 0.00 49 1019.3
20260831181041 71 322 5.0 7.0 0.00 0.22 0.00 50 1019.3
20260831180943 71 353 1.0 5.0 0.00 0.22 0.00 50 1019.5
20260831175943 70 283 2.0 4.0 0.00 0.22 0.00 51 1019.3
20260831174940 71 123 3.0 5.0 0.00 0.22 0.00 51 1019.5
20260831174842 71 86 4.0 7.0 0.00 0.22 0.00 51 1019.6
20260831173840 71 79 4.0 6.0 0.00 0.22 0.00 51 1019.6
20260831172842 70 300 3.0 7.0 0.00 0.22 0.00 51 1019.5
20260831172740 70 303 5.0 9.0 0.00 0.22 0.00 51 1019.6
20260831171742 70 264 6.0 9.0 0.00 0.22 0.00 50 1019.7
20260831170742 70 45 2.0 4.0 0.00 0.22 0.00 53 1019.6
20260831165840 68 275 3.0 6.0 0.00 0.22 0.00 55 1019.6
20260831165741 68 267 5.0 8.0 0.00 0.22 0.00 55 1019.6
20260831164840 68 263 8.0 12.0 0.00 0.22 0.00 56 1019.7
20260831163840 68 267 6.0 9.0 0.00 0.22 0.00 56 1019.9
20260831162841 68 275 9.0 13.0 0.00 0.22 0.00 57 1019.8
20260831161940 67 277 5.0 7.0 0.00 0.22 0.00 58 1019.9
20260831160942 67 247 4.0 7.0 0.00 0.22 0.00 58 1019.9
20260831155942 67 323 3.0 7.0 0.00 0.22 0.00 57 1020.1
20260831154940 67 252 5.0 8.0 0.00 0.22 0.00 59 1020.4
20260831152940 66 346 8.0 12.0 0.00 0.22 0.00 60 1020.5
20260831151941 65 353 7.0 10.0 0.00 0.22 0.00 61 1020.5
20260831151040 65 330 6.0 8.0 0.00 0.22 0.00 62 1020.4
20260831150042 65 321 7.0 9.0 0.00 0.22 0.00 63 1020.5
20260831144041 63 341 10.0 13.0 0.00 0.22 0.00 66 1020.5
20260831143041 62 320 14.0 17.0 0.00 0.22 0.00 66 1020.3
20260831142055 62 312 11.0 13.0 0.00 0.22 0.00 67 1020.4
20260831141140 62 324 9.0 12.0 0.00 0.22 0.00 67 1020.3
20260831140142 62 7 9.0 13.0 0.00 0.22 0.00 69 1020.1
20260831135239 61 305 8.0 13.0 0.00 0.22 0.00 72 1020.0
20260831135142 61 325 7.0 10.0 0.00 0.22 0.00 73 1020.0
20260831134142 61 315 9.0 13.0 0.00 0.22 0.00 72 1019.9
20260831133241 60 270 6.0 8.0 0.00 0.22 0.00 75 1020.0
20260831132340 60 278 7.0 12.0 0.00 0.22 0.00 74 1020.0
20260831132243 60 270 7.0 11.0 0.00 0.22 0.00 74 1020.1
20260831131243 60 275 6.0 10.0 0.00 0.22 0.00 74 1020.0
20260831130239 59 313 6.0 9.0 0.00 0.22 0.00 73 1020.1
20260831125242 59 317 6.0 8.0 0.00 0.22 0.00 75 1020.1
20260831124239 59 311 6.0 8.0 0.00 0.22 0.00 76 1020.2
20260831123241 58 312 6.0 9.0 0.00 0.22 0.00 76 1020.1
20260831122340 57 315 4.0 6.0 0.00 0.22 0.00 79 1020.1
20260831122240 57 315 5.0 8.0 0.00 0.22 0.00 79 1020.2
20260831122141 57 318 4.0 6.0 0.00 0.22 0.00 79 1020.1
20260831121141 57 299 3.0 5.0 0.00 0.22 0.00 80 1020.1
20260831120140 57 309 8.0 12.0 0.00 0.22 0.00 80 1020.1
20260831115141 56 272 3.0 4.0 0.00 0.22 0.00 82 1020.1
20260831114239 56 283 5.0 7.0 0.00 0.22 0.00 84 1020.0
20260831113241 55 313 6.0 8.0 0.00 0.22 0.00 84 1019.8
20260831112339 55 313 7.0 11.0 0.00 0.22 0.00 85 1019.8
20260831111342 54 292 7.0 10.0 0.00 0.22 0.00 85 1019.7
20260831110339 54 310 6.0 10.0 0.00 0.22 0.00 86 1019.5
20260831105342 54 299 8.0 11.0 0.00 0.22 0.00 87 1019.4
20260831104341 54 294 8.0 11.0 0.00 0.22 0.00 87 1019.2
20260831103441 54 295 8.0 11.0 0.00 0.22 0.00 88 1019.3
20260831102458 54 307 6.0 9.0 0.00 0.22 0.00 88 1019.2
20260831101442 54 307 7.0 9.0 0.00 0.22 0.00 88 1019.0
20260831100440 54 295 8.0 11.0 0.00 0.22 0.00 89 1018.9
20260831095442 54 315 7.0 9.0 0.00 0.22 0.00 89 1018.8
20260831093541 54 313 7.0 8.0 0.00 0.22 0.00 88 1018.4
20260831090641 55 273 9.0 11.0 0.00 0.22 0.00 88 1018.1
20260831085641 55 294 9.0 11.0 0.00 0.22 0.00 87 1018.1
20260831084641 55 286 9.0 11.0 0.00 0.22 0.00 88 1018.1
20260831083642 54 278 7.0 10.0 0.00 0.22 0.00 89 1018.3
20260831082740 55 270 7.0 10.0 0.00 0.22 0.00 89 1018.1
20260831081743 55 270 7.0 10.0 0.00 0.22 0.00 88 1018.3
20260831080839 55 307 7.0 10.0 0.00 0.22 0.00 88 1018.3
20260831075841 55 303 8.0 10.0 0.00 0.22 0.00 87 1018.1
20260831074841 55 299 9.0 11.0 0.00 0.22 0.00 89 1018.1
20260831073839 55 294 8.0 12.0 0.00 0.22 0.00 90 1018.0
20260831072842 55 301 6.0 7.0 0.00 0.22 0.00 90 1017.8
20260831072740 55 292 6.0 8.0 0.00 0.22 0.00 89 1017.8
20260831071740 56 273 5.0 9.0 0.00 0.22 0.00 88 1017.8
20260831070743 56 304 10.0 13.0 0.00 0.22 0.00 89 1017.8